Change the Weather History Date:

Sunday, March 31, 2013

  Actual Average Record
Temperature  
Mean Temperature 50 °F 43 °F  
Max Temperature 61 °F 54 °F 80 °F (1943)
Min Temperature 38 °F 33 °F 7 °F (1923)
Degree Days  
Heating Degree Days 15 22  
Month to date heating degree days 971 850  
Since 1 July heating degree days 5427 5426  
Cooling Degree Days 0 0  
Month to date cooling degree days 0 0  
Year to date cooling degree days 0 0  
Moisture  
Dew Point 34 °F    
Average Humidity 56    
Maximum Humidity 82    
Minimum Humidity 29    
Precipitation  
Precipitation T in 0.10 in 1.11 in (1985)
Month to date precipitation 0.73 2.48  
Year to date precipitation 7.17 6.60  
Snow  
Snow 0.00 in 0.10 in - ()
Month to date snowfall 1.4 5.7  
Since 1 July snowfall 22.1 36.2  
Snow Depth 0.00 in    
Sea Level Pressure  
Sea Level Pressure 29.74 in    
Wind  
Wind Speed 11 mph (WSW)    
Max Wind Speed 25 mph    
Max Gust Speed 31 mph    
Visibility 10 miles    
Events Rain    
T = Trace of Precipitation, MM = Missing Value Source: NWS Daily Summary

Daily Weather History Graph

Daily Weather History Graph

Search for Another Location

Airport or City:

Trip Planner

Search our weather history database for the weather conditions in past years. The results will help you decide how hot, cold, wet, or windy it might be!

Date:

Astronomy

Mar. 31, 2013 Rise Set
Actual Time 7:19 AM EDT 7:59 PM EDT
Civil Twilight 6:51 AM EDT 8:27 PM EDT
Nautical Twilight 6:18 AM EDT 9:00 PM EDT
Astronomical Twilight 5:44 AM EDT 9:35 PM EDT
Moon 12:07 AM EDT (3/31) 10:03 AM EDT (3/31)
Length of Visible Light 13h 36m
Length of Day
12h 40m
Waning Gibbous, 78% of the Moon is Illuminated
Mar 31
Waning Gibbous
Apr 3
Last Quarter
Apr 10
New
Apr 18
First Quarter
Apr 25
Full

Hourly Weather History & Observations

Time (EDT) Temp. Windchill Dew Point Humidity Pressure Visibility Wind Dir Wind Speed Gust Speed Precip Events Conditions
12:52 AM 39.0 °F - 30.0 °F 70% 29.93 in 10.0 mi Calm Calm - N/A   Clear
1:52 AM 37.9 °F - 30.0 °F 73% 29.89 in 10.0 mi Calm Calm - N/A   Clear
2:52 AM 41.0 °F 38.0 °F 28.0 °F 60% 29.86 in 10.0 mi South 4.6 mph - N/A   Partly Cloudy
3:52 AM 41.0 °F 37.1 °F 28.9 °F 62% 29.83 in 10.0 mi South 5.8 mph - N/A   Clear
4:52 AM 42.1 °F 37.7 °F 28.9 °F 60% 29.81 in 10.0 mi South 6.9 mph - N/A   Partly Cloudy
5:52 AM 41.0 °F 38.0 °F 30.0 °F 65% 29.79 in 10.0 mi South 4.6 mph - N/A   Overcast
6:52 AM 42.1 °F 38.4 °F 30.9 °F 65% 29.77 in 10.0 mi SSW 5.8 mph - N/A   Overcast
7:52 AM 43.0 °F 39.5 °F 30.9 °F 62% 29.77 in 10.0 mi SSW 5.8 mph - N/A   Overcast
8:52 AM 45.0 °F 41.2 °F 32.0 °F 60% 29.76 in 10.0 mi SSW 6.9 mph - 0.00 in   Overcast
9:52 AM 46.0 °F 39.6 °F 36.0 °F 68% 29.74 in 9.0 mi WSW 15.0 mph 19.6 mph 0.00 in Rain Light Rain
10:52 AM 45.0 °F 39.3 °F 39.9 °F 82% 29.75 in 6.0 mi WSW 11.5 mph - 0.00 in   Haze
11:05 AM 44.6 °F 39.7 °F 39.2 °F 81% 29.73 in 6.0 mi WSW 9.2 mph - N/A   Haze
11:52 AM 46.0 °F 40.6 °F 41.0 °F 83% 29.75 in 7.0 mi WSW 11.5 mph - N/A   Overcast
12:52 PM 46.9 °F - 41.0 °F 80% 29.74 in 6.0 mi WSW 13.8 mph - N/A   Haze
1:41 PM 50.0 °F - 42.8 °F 76% 29.71 in 9.0 mi WSW 12.7 mph - N/A   Overcast
1:52 PM 52.0 °F - 42.1 °F 69% 29.72 in 10.0 mi WSW 16.1 mph - N/A   Overcast
2:09 PM 53.6 °F - 39.2 °F 58% 29.70 in 10.0 mi WSW 16.1 mph 21.9 mph N/A   Scattered Clouds
2:34 PM 53.6 °F - 37.4 °F 54% 29.69 in 10.0 mi West 17.3 mph 21.9 mph N/A   Mostly Cloudy
2:42 PM 55.4 °F - 37.4 °F 51% 29.69 in 10.0 mi WSW 17.3 mph - N/A   Mostly Cloudy
2:52 PM 55.9 °F - 36.0 °F 47% 29.70 in 10.0 mi West 16.1 mph 24.2 mph N/A   Scattered Clouds
3:52 PM 57.9 °F - 33.1 °F 39% 29.67 in 10.0 mi West 13.8 mph 24.2 mph N/A   Scattered Clouds
4:52 PM 60.1 °F - 28.9 °F 31% 29.65 in 10.0 mi West 20.7 mph 31.1 mph N/A   Partly Cloudy
5:52 PM 57.9 °F - 27.0 °F 31% 29.65 in 10.0 mi West 17.3 mph 27.6 mph N/A   Scattered Clouds
6:52 PM 57.0 °F - 28.0 °F 33% 29.65 in 10.0 mi West 15.0 mph 26.5 mph N/A   Overcast
7:52 PM 54.0 °F - 30.0 °F 40% 29.66 in 10.0 mi West 12.7 mph - 0.00 in   Mostly Cloudy
8:52 PM 51.1 °F - 30.9 °F 46% 29.68 in 10.0 mi WNW 5.8 mph - 0.00 in   Mostly Cloudy
9:52 PM 50.0 °F - 33.1 °F 52% 29.68 in 10.0 mi WSW 5.8 mph - 0.00 in   Mostly Cloudy
10:52 PM 48.9 °F - 34.0 °F 56% 29.70 in 10.0 mi West 12.7 mph 19.6 mph N/A   Partly Cloudy
11:52 PM 44.1 °F 35.9 °F 30.9 °F 60% 29.73 in 10.0 mi West 19.6 mph 25.3 mph N/A   Partly Cloudy